Home   Weather   Greven   Past weeks

Flag for Germany Past Weather in Greven, North Rhine-Westphalia, Germany — Yesterday and Last 2 Weeks

Now
30 °F

Passing clouds.


Feels Like: 27 °F
Forecast: 20 / 32 °F
Wind: 3 mph from Northeast

Location: Muenster / Osnabrueck

Current Time: Jan 18, 2017 at 1:26:30 pm

Latest Report: Jan 18, 2017 at 12:50 pm


Visibility: N/A

Pressure: 30.72 "Hg

Humidity: 75%

Dew Point: 23 °F

Location of GrevenLocation

Past Weather in Greven — Graph

°F

Greven Temperature Yesterday

Maximum temperature yesterday: 27 °F (at 12:20 am)
Minimum temperature yesterday: 25 °F (at 5:20 am)
Average temperature yesterday: 26 °F

High & Low Weather Summary for the Past Weeks

 TemperatureHumidityPressure
High46 °F (Jan 11, 1:50 pm)100% (Jan 3, 11:20 pm)30.74 "Hg (Jan 3, 11:20 pm)
Low16 °F (Jan 6, 5:20 am)59% (Jan 5, 3:20 pm)28.94 "Hg (Jan 13, 2:20 am)
Average33 °F88%30.11 "Hg
* Reported Jan 3 12:20 pm — Jan 18 12:20 pm, Greven, Weather by CustomWeather, © 2017

Note: Actual official high and low records may vary slightly from our data, if they occured in-between our weather recording intervals... More about our weather records

Advertising

Greven Weather History for the Previous 24 Hours

Scroll right to see more
 ConditionsComfort  
Time TempWeatherWind HumidityBarometerVisibility
12:20 pm
Wed, Jan 18
28 °FSunny.3 mph74%30.72 "Hg10 mi
11:50 am28 °FSunny.3 mph80%30.72 "Hg10 mi
11:20 am27 °FPassing clouds.3 mph86%30.74 "HgN/A
10:50 am27 °FClear.3 mph86%30.74 "Hg6 mi
10:20 am25 °FClear.5 mph93%30.74 "Hg4 mi
9:50 am25 °FIce fog.2 mph93%30.74 "Hg1 mi
9:20 am23 °FIce fog.3 mph100%30.72 "Hg1 mi
8:50 am23 °FIce fog.3 mph100%30.72 "Hg1 mi
8:20 am23 °FIce fog.2 mph100%30.72 "Hg1 mi
7:50 am23 °FIce fog.1 mph100%30.69 "Hg1 mi
7:20 am23 °FIce fog.1 mph100%30.69 "Hg1 mi
6:50 am23 °FIce fog.No wind100%30.69 "Hg1 mi
6:20 am25 °FIce fog.2 mph93%30.69 "Hg2 mi
5:50 am25 °FIce fog.2 mph93%30.69 "Hg1 mi
5:20 am25 °FIce fog.3 mph93%30.72 "Hg2 mi
4:50 am25 °FIce fog.2 mph100%30.72 "Hg2 mi
4:20 am25 °FIce fog.2 mph100%30.72 "Hg2 mi
3:50 am25 °FIce fog.2 mph100%30.72 "Hg2 mi
3:20 am25 °FIce fog.3 mph93%30.72 "Hg2 mi
2:50 am25 °FIce fog.3 mph93%30.72 "Hg2 mi
2:20 am25 °FIce fog.5 mph93%30.72 "Hg3 mi
1:50 am25 °FIce fog.2 mph93%30.72 "Hg3 mi
1:20 am25 °FIce fog.No wind93%30.69 "Hg3 mi
12:50 am25 °FIce fog.2 mph100%30.72 "Hg3 mi
12:20 am25 °FIce fog.No wind100%30.72 "Hg3 mi
11:50 pm
Tue, Jan 17
25 °FIce fog.3 mph100%30.72 "Hg2 mi
11:20 pm25 °FIce fog.3 mph100%30.72 "Hg2 mi
10:50 pm25 °FIce fog.2 mph100%30.72 "Hg2 mi
10:20 pm25 °FIce fog.2 mph100%30.72 "Hg2 mi
9:50 pm25 °FIce fog.No wind100%30.69 "Hg2 mi
9:20 pm25 °FIce fog.2 mph93%30.69 "Hg2 mi
8:50 pm25 °FIce fog.No wind100%30.69 "Hg2 mi
8:20 pm25 °FIce fog.1 mph100%30.69 "Hg2 mi
7:50 pm25 °FIce fog.No wind100%30.69 "Hg2 mi
7:20 pm25 °FIce fog.2 mph100%30.69 "Hg2 mi
6:50 pm25 °FIce fog.2 mph100%30.69 "Hg2 mi
6:20 pm25 °FIce fog.1 mph100%30.69 "Hg2 mi
5:50 pm25 °FIce fog.No wind93%30.66 "Hg2 mi
5:20 pm25 °FIce fog.3 mph93%30.66 "Hg2 mi
4:50 pm25 °FIce fog.No wind93%30.66 "Hg3 mi
4:20 pm25 °FIce fog.1 mph93%30.66 "Hg3 mi
3:50 pm25 °FIce fog.3 mph93%30.66 "Hg3 mi
3:20 pm27 °FIce fog.3 mph93%30.66 "Hg3 mi
2:50 pm27 °FIce fog.2 mph93%30.66 "Hg3 mi
2:20 pm27 °FIce fog.1 mph93%30.66 "Hg3 mi
1:50 pm27 °FIce fog.2 mph93%30.66 "Hg3 mi
1:20 pm25 °FLight snow. Ice fog.No wind100%30.66 "Hg2 mi
Weather by CustomWeather, © 2017

See weather overviewHow to use our weather pages